[[{"header":{"parameterUnit":"m.s-1","parameterCategory":1,"la1":30.2991,"la2":30.254,"lo1":-89.0895,"lo2":-89.0444,"dy":0.0017,"dx":0.0017,"nx":28,"ny":28,"refTime":"2023-09-01T09:00:00:Z","depth":0,"parameterNumber":2,"parameterNumberName":"U-component_of_WINDS"},"data":[0,0,0,0,0,0,0,0,0,0,0,0,0,0,0,0,0,0,0,0,0,0,0,0,0,0,0,0,0,0,0,0,0,0,0,0,0,0,0,0,0,0,0,0,0,0,0,0,0,0,0,0,0,0,0,0,0,0,-1.3117,-1.3119,0,-1.3284,-1.3286,-1.3288,-1.3369,-1.3368,-1.3368,-1.3368,-1.3541,-1.3546,-1.3551,0,0,0,0,0,0,0,0,0,0,0,0,0,-1.2869,-1.2873,-1.3117,-1.3119,-1.3121,-1.3284,-1.3286,-1.3289,-1.3369,-1.3368,-1.3368,-1.3368,-1.354,-1.3545,-1.3551,0,0,0,0,0,0,0,0,0,0,0,0,0,-1.3,-1.2874,-1.3117,-1.3181,-1.3188,-1.3284,-1.3286,-1.3289,-1.3369,-1.3368,-1.3368,-1.3368,-1.3538,-1.3545,-1.3552,-1.3597,0,0,-1.3573,-1.3576,0,0,0,0,0,0,0,0,-1.2993,-1.3009,-1.3169,-1.3176,-1.3185,-1.3305,-1.3262,-1.3392,-1.3369,-1.33,-1.3368,-1.3368,-1.3463,-1.3476,-1.3508,-1.3605,-1.3612,-1.3574,-1.3578,-1.3581,-1.3583,0,0,0,0,0,0,0,-1.2984,-1.3003,-1.3183,-1.3171,-1.3181,-1.3202,-1.322,-1.3287,-1.338,-1.3306,-1.3312,-1.3331,-1.3467,-1.3501,-1.3513,-1.3615,-1.3574,-1.358,-1.3584,-1.3587,-1.3758,-1.3759,0,0,0,0,0,0,-1.2964,-1.2995,-1.3178,-1.3188,-1.3087,-1.3206,-1.3227,-1.3267,-1.338,-1.3397,-1.3331,-1.3334,-1.3489,-1.3504,-1.3519,-1.358,-1.3581,-1.3588,-1.3592,-1.3758,-1.3758,-1.3759,0,0,0,0,0,0,-1.2958,-1.2979,-1.3171,-1.3093,-1.3119,-1.3211,-1.3255,-1.327,-1.3304,-1.3398,-1.3415,-1.3348,-1.349,-1.3509,-1.3577,-1.3587,-1.3591,-1.3597,-1.3758,-1.3758,-1.3759,-1.3701,0,0,0,0,0,0,-1.2951,-1.2977,-1.2994,-1.3093,-1.3123,-1.3225,-1.3255,-1.3274,-1.3315,-1.3321,-1.3419,-1.3435,-1.3491,-1.3566,-1.3584,-1.3597,-1.3603,-1.3757,-1.3758,-1.3758,-1.3702,-1.3699,-1.3697,0,0,0,0,0,-1.2942,-1.2972,-1.2995,-1.3017,-1.3147,-1.3226,-1.3243,-1.3307,-1.3316,-1.3335,-1.3395,-1.3432,-1.3583,-1.3572,-1.3593,-1.3608,-1.3757,-1.3758,-1.3758,-1.3704,-1.37,-1.3697,0,0,0,0,0,0,-1.2873,-1.2986,-1.3013,-1.3076,-1.314,-1.3239,-1.3265,-1.3301,-1.3365,-1.3367,-1.3444,-1.3465,-1.3526,-1.3574,-1.3561,-1.3658,-1.3673,-1.3678,-1.3624,-1.3622,-1.3619,-1.3607,-1.3608,0,0,0,0,0,-1.2865,-1.2919,-1.3015,-1.3061,-1.3092,-1.3173,-1.321,-1.3253,-1.3323,-1.3351,-1.3417,-1.3485,-1.3548,-1.3587,-1.365,-1.3709,-1.3732,-1.373,-1.3727,-1.3725,-1.3728,-1.3764,-1.3764,-1.3761,-1.3761,-1.3761,0,0,-1.2849,-1.2917,-1.2947,-1.3049,-1.3105,-1.316,-1.3195,-1.3252,-1.3294,-1.336,-1.3428,-1.3479,-1.3559,-1.3623,-1.3655,-1.3665,-1.3734,-1.3726,-1.3723,-1.3728,-1.3765,-1.3765,-1.3765,-1.3762,-1.3762,-1.3762,0,0,-1.2849,-1.2905,-1.295,-1.3005,-1.3088,-1.3141,-1.3152,-1.3246,-1.3282,-1.3351,-1.3402,-1.3453,-1.356,-1.3615,-1.3657,-1.3678,-1.3714,-1.3696,-1.3682,-1.3716,-1.3716,-1.3717,-1.3725,-1.3726,-1.3699,-1.3699,-1.3699,0,-1.2819,-1.2903,-1.2969,-1.3023,-1.3067,-1.3129,-1.3175,-1.3225,-1.3325,-1.3354,-1.3364,-1.3499,-1.3557,-1.3635,-1.364,-1.3672,-1.3687,-1.3686,-1.371,-1.3712,-1.3713,-1.3722,-1.3725,-1.3696,-1.3697,-1.3697,-1.3697,0,-1.2862,-1.292,-1.2947,-1.3041,-1.3087,-1.3137,-1.3212,-1.3251,-1.329,-1.3342,-1.3413,-1.3485,-1.3564,-1.3586,-1.3624,-1.3669,-1.3673,-1.3696,-1.3713,-1.371,-1.3719,-1.3723,-1.3693,-1.3694,-1.3694,-1.3695,0,0,-1.2823,-1.2953,-1.2962,-1.3005,-1.3102,-1.3148,-1.3201,-1.3278,-1.331,-1.3377,-1.3424,-1.3512,-1.3534,-1.3582,-1.3627,-1.3657,-1.3669,-1.3676,-1.3679,-1.3673,-1.3724,-1.3707,-1.3709,-1.3694,-1.3695,-1.3695,-1.3718,0,-1.2837,-1.2934,-1.2995,-1.3068,-1.3122,-1.3182,-1.3229,-1.3293,-1.3343,-1.3398,-1.3454,-1.3515,-1.3539,-1.3568,-1.36,-1.3661,-1.3681,-1.366,-1.3739,-1.3741,-1.3717,-1.3714,-1.3696,-1.3714,-1.3722,-1.3722,-1.3723,0,-1.2865,-1.293,-1.3007,-1.3098,-1.3123,-1.3164,-1.3239,-1.329,-1.3365,-1.34,-1.3452,-1.3499,-1.3558,-1.357,-1.3653,-1.3637,-1.3673,-1.3708,-1.371,-1.3721,-1.3732,-1.3725,-1.3721,-1.3723,-1.3729,-1.3728,-1.3728,0,-1.2829,-1.2936,-1.2996,-1.3032,-1.3139,-1.3166,-1.3212,-1.3286,-1.3329,-1.3395,-1.3423,-1.3495,-1.3535,-1.359,-1.3655,-1.3658,-1.3732,-1.3749,-1.3763,-1.3762,-1.3777,-1.3775,-1.3779,-1.3799,-1.3799,-1.3799,-1.3799,0,-1.2838,-1.2883,-1.2982,-1.3019,-1.3072,-1.3142,-1.3193,-1.3244,-1.331,-1.3359,-1.3415,-1.346,-1.3543,-1.3598,-1.3649,-1.3711,-1.3728,-1.3758,-1.3772,-1.3754,-1.375,-1.3779,-1.3779,-1.3799,-1.3799,-1.3799,-1.3799,0,-1.2807,-1.2874,-1.2944,-1.304,-1.3065,-1.31,-1.3182,-1.3221,-1.3275,-1.3336,-1.3354,-1.3438,-1.3506,-1.3576,-1.3669,-1.3703,-1.3763,-1.3781,-1.3738,-1.3745,-1.3756,-1.3754,-1.3779,-1.3786,-1.38,-1.3799,-1.3799,0,-1.2808,-1.2844,-1.2944,-1.298,-1.3024,-1.3082,-1.3126,-1.3197,-1.324,-1.3328,-1.3356,-1.3428,-1.349,-1.3596,-1.3665,-1.3737,-1.3757,-1.3761,-1.3768,-1.3749,-1.3758,-1.3755,-1.3759,-1.3758,-1.3757,-1.3757,-1.3757,0,-1.2803,-1.2835,-1.2894,-1.2966,-1.3016,-1.3076,-1.3139,-1.3165,-1.3249,-1.3294,-1.3364,-1.3412,-1.3506,-1.3577,-1.3656,-1.3705,-1.3745,-1.3754,-1.3761,-1.3743,-1.3717,-1.3732,-1.3731,-1.3753,-1.3753,-1.3754,-1.3754,-1.3754,-1.2789,-1.2824,-1.2899,-1.2964,-1.3019,-1.3075,-1.3117,-1.3175,-1.3234,-1.3316,-1.3355,-1.3425,-1.35,-1.361,-1.3658,-1.3714,-1.3726,-1.3736,-1.3739,-1.374,-1.3736,-1.3707,-1.3729,-1.3729,-1.373,-1.373,-1.373,0,-1.2787,-1.2838,-1.2897,-1.2983,-1.3034,-1.3066,-1.3137,-1.3178,-1.3239,-1.3305,-1.3364,-1.3445,-1.3514,-1.3589,-1.3664,-1.3695,-1.3715,-1.3712,-1.3711,-1.3721,-1.3722,-1.3708,-1.3694,-1.3694,-1.3694,-1.3694,-1.3694,-1.3694,-1.2792,-1.2854,-1.2894,-1.2983,-1.3035,-1.3104,-1.3142,-1.3195,-1.3248,-1.3335,-1.3393,-1.3441,-1.3511,-1.3591,-1.3657,-1.3677,-1.3702,-1.3694,-1.3719,-1.3718,-1.3721,-1.3724,-1.3711,-1.3698,-1.3698,-1.3715,-1.3715,-1.3715]},{"header":{"parameterUnit":"m.s-1","parameterCategory":1,"la1":30.2991,"la2":30.254,"lo1":-89.0895,"lo2":-89.0444,"dy":0.0017,"dx":0.0017,"nx":28,"ny":28,"refTime":"2023-09-01T09:00:00:Z","depth":0,"parameterNumber":3,"parameterNumberName":"V-component_of_WINDS"},"data":[0,0,0,0,0,0,0,0,0,0,0,0,0,0,0,0,0,0,0,0,0,0,0,0,0,0,0,0,0,0,0,0,0,0,0,0,0,0,0,0,0,0,0,0,0,0,0,0,0,0,0,0,0,0,0,0,0,0,1.0642,1.0642,0,1.0588,1.0588,1.0587,1.0548,1.0547,1.0547,1.0547,1.0488,1.0487,1.0486,0,0,0,0,0,0,0,0,0,0,0,0,0,1.0708,1.0707,1.0642,1.0641,1.0641,1.0588,1.0587,1.0587,1.0548,1.0547,1.0547,1.0547,1.0489,1.0487,1.0486,0,0,0,0,0,0,0,0,0,0,0,0,0,1.0669,1.0707,1.0642,1.0615,1.0612,1.0588,1.0587,1.0587,1.0548,1.0547,1.0547,1.0546,1.0489,1.0487,1.0486,1.0484,0,0,1.048,1.0479,0,0,0,0,0,0,0,0,1.0672,1.0667,1.062,1.0617,1.0614,1.0574,1.0589,1.0552,1.0548,1.0572,1.0547,1.0546,1.0517,1.0513,1.0504,1.0481,1.0478,1.048,1.0479,1.0478,1.0477,0,0,0,0,0,0,0,1.0674,1.0669,1.0621,1.0619,1.0615,1.0604,1.0598,1.0582,1.0548,1.057,1.0567,1.0561,1.0515,1.0506,1.0502,1.0478,1.048,1.0478,1.0477,1.0476,1.0449,1.045,0,0,0,0,0,0,1.0682,1.0672,1.0622,1.0619,1.0642,1.0604,1.0597,1.0587,1.0548,1.0542,1.0562,1.056,1.0509,1.0504,1.05,1.0494,1.0478,1.0476,1.0475,1.0449,1.0449,1.045,0,0,0,0,0,0,1.0683,1.0678,1.0625,1.0644,1.0637,1.0603,1.0593,1.0586,1.0577,1.0542,1.0535,1.0558,1.0509,1.0503,1.0488,1.0492,1.0475,1.0473,1.0448,1.0449,1.0449,1.0484,0,0,0,0,0,0,1.0685,1.0679,1.0678,1.0645,1.0636,1.0615,1.0593,1.0586,1.0574,1.0571,1.0537,1.0531,1.0508,1.0491,1.0486,1.0489,1.0472,1.0448,1.0449,1.0449,1.0482,1.0485,1.0488,0,0,0,0,0,1.0688,1.069,1.0678,1.0673,1.0635,1.0615,1.061,1.0584,1.0575,1.0573,1.0551,1.0532,1.0492,1.049,1.0484,1.0486,1.0447,1.0448,1.0449,1.048,1.0485,1.0488,0,0,0,0,0,0,1.0723,1.0685,1.0672,1.0663,1.0643,1.0608,1.0606,1.0589,1.057,1.0568,1.0536,1.0529,1.0517,1.05,1.0498,1.0482,1.0467,1.0467,1.0493,1.0497,1.05,1.0504,1.047,0,0,0,0,0,1.073,1.0718,1.0685,1.068,1.0671,1.064,1.0631,1.0613,1.059,1.0581,1.0557,1.0535,1.0517,1.0506,1.0488,1.0479,1.0471,1.0478,1.0481,1.0484,1.0484,1.0477,1.0479,1.0453,1.0453,1.0453,0,0,1.0744,1.0722,1.0716,1.0687,1.0669,1.0656,1.0633,1.0621,1.061,1.0578,1.0563,1.0545,1.0518,1.0506,1.05,1.0492,1.0489,1.0485,1.0487,1.0486,1.0478,1.0481,1.0483,1.0453,1.0453,1.0453,0,0,1.0763,1.0745,1.0739,1.0722,1.0695,1.0675,1.0673,1.0642,1.0629,1.0613,1.0589,1.0575,1.0546,1.0527,1.0514,1.0526,1.0507,1.0521,1.0536,1.053,1.0532,1.0534,1.0537,1.0538,1.0521,1.0521,1.0521,0,1.0783,1.0764,1.0738,1.0726,1.0714,1.0685,1.0678,1.0662,1.0631,1.0622,1.0614,1.0576,1.0556,1.0539,1.0542,1.0532,1.0528,1.0524,1.0534,1.0536,1.0537,1.0539,1.0541,1.0523,1.0522,1.0522,1.0522,0,1.0789,1.0776,1.0774,1.0746,1.0733,1.0724,1.0695,1.0685,1.0668,1.0648,1.0632,1.0607,1.0583,1.0578,1.0561,1.0558,1.0554,1.054,1.0525,1.0541,1.0543,1.0544,1.0525,1.0524,1.0524,1.0523,0,0,1.0829,1.0786,1.0785,1.0772,1.074,1.0729,1.0718,1.0695,1.0687,1.0666,1.0655,1.0631,1.0618,1.0603,1.0584,1.0579,1.0588,1.0565,1.0564,1.0569,1.0582,1.0592,1.0594,1.0576,1.0576,1.0576,1.0584,0,1.0842,1.0822,1.0798,1.0785,1.0772,1.0745,1.0735,1.0714,1.0695,1.068,1.0659,1.0642,1.0627,1.0618,1.0611,1.0588,1.059,1.0587,1.0564,1.0564,1.0571,1.0595,1.0605,1.0614,1.0585,1.0585,1.0585,0,1.0854,1.0836,1.0822,1.0791,1.0785,1.0777,1.0754,1.074,1.0716,1.0702,1.0686,1.0665,1.0651,1.0638,1.0617,1.0616,1.0605,1.0592,1.0592,1.0588,1.0575,1.059,1.0616,1.0617,1.0586,1.0586,1.0586,0,1.0883,1.0854,1.0843,1.0832,1.0796,1.0791,1.0775,1.075,1.0738,1.0717,1.0709,1.0687,1.0674,1.0657,1.0631,1.0624,1.0612,1.0598,1.06,1.06,1.0598,1.0598,1.0621,1.0592,1.0592,1.0592,1.0592,0,1.0899,1.0892,1.0855,1.0848,1.0838,1.081,1.0801,1.0783,1.0761,1.0749,1.0723,1.0712,1.0678,1.0663,1.0642,1.0627,1.0622,1.061,1.0604,1.0612,1.0613,1.0603,1.0602,1.0593,1.0593,1.0593,1.0593,0,1.093,1.0905,1.089,1.0857,1.0849,1.0843,1.0814,1.0806,1.0786,1.077,1.0765,1.0733,1.0713,1.0686,1.0657,1.0643,1.0631,1.0623,1.064,1.0636,1.0639,1.0639,1.0656,1.0657,1.0629,1.0629,1.0629,0,1.0942,1.0935,1.0902,1.0893,1.0878,1.0863,1.0851,1.0823,1.081,1.0782,1.0776,1.0754,1.0736,1.0705,1.0679,1.0657,1.0647,1.0654,1.0643,1.0651,1.0646,1.0646,1.0645,1.0657,1.0657,1.0658,1.0658,0,1.0965,1.0953,1.0936,1.0915,1.0902,1.0883,1.0864,1.0857,1.0825,1.0812,1.0792,1.0778,1.0749,1.0728,1.0702,1.0684,1.0665,1.0662,1.0661,1.0668,1.0678,1.0671,1.0646,1.0661,1.0661,1.0661,1.066,1.066,1.0985,1.0978,1.0954,1.0936,1.0919,1.0901,1.0891,1.087,1.0853,1.0828,1.0813,1.0793,1.0767,1.0731,1.0715,1.0698,1.069,1.0689,1.0689,1.0689,1.0691,1.0681,1.0693,1.0693,1.0693,1.0693,1.0693,0,1.1007,1.099,1.0974,1.0948,1.0934,1.0918,1.0896,1.0884,1.0868,1.0846,1.0829,1.0805,1.0784,1.0756,1.0733,1.0725,1.0715,1.0719,1.0719,1.0715,1.07,1.0702,1.0728,1.0728,1.0727,1.0727,1.0727,1.0727,1.1016,1.1003,1.0988,1.0966,1.0948,1.093,1.0918,1.0901,1.0884,1.0859,1.0842,1.0824,1.0799,1.0774,1.0754,1.0746,1.0738,1.0745,1.0734,1.072,1.0717,1.0714,1.0716,1.0743,1.0743,1.0751,1.0751,1.0751]}]]